Location: Oshawa
(43.9000°N, 78.8670°W)
Time: 20:50:11
(UTC-04:00)

Cosmos 839 Rocket - Visible Passes

Search period start: 16 April 2014 00:00
Search period end: 26 April 2014 00:00
Orbit: 963 x 2090 km, 65.9° (Epoch: 14 April)

Date Brightness Start Highest point End Pass type
(mag) Time Alt. Az. Time Alt. Az. Time Alt. Az.
16 Apr 6.9 00:58:14 10° NNW 01:03:14 17° NNE 01:07:39 10° NE visible
16 Apr 5.4 02:59:03 10° NNW 03:06:11 40° NE 03:12:11 10° ESE visible
16 Apr 4.4 04:59:41 10° NW 05:06:17 42° WSW 05:12:03 10° S visible
16 Apr 7.1 22:08:27 10° WNW 22:16:06 23° NNW 22:22:36 10° NNE visible
17 Apr 7.0 00:15:32 10° NNW 00:20:16 15° N 00:24:30 10° NE visible
17 Apr 6.0 02:17:08 10° NNW 02:23:47 30° NE 02:29:27 10° E visible
17 Apr 4.0 04:17:28 10° NW 04:24:38 67° WSW 04:30:46 10° SSE visible
17 Apr 6.9 21:24:41 10° W 21:33:25 29° NW 21:40:42 10° NNE visible
17 Apr 7.0 23:32:20 10° NW 23:37:15 15° N 23:41:38 10° NNE visible
18 Apr 6.4 01:35:10 10° NNW 01:41:13 23° NNE 01:46:26 10° E visible
18 Apr 4.2 03:35:24 10° NNW 03:42:48 82° ENE 03:49:02 10° SE visible
18 Apr 5.5 05:37:46 10° WNW 05:41:32 16° W 05:45:04 10° SW visible
18 Apr 6.7 20:41:11 10° WSW 20:50:54 37° NW 20:58:52 10° NNE visible
18 Apr 7.0 22:48:42 10° NW 22:54:15 17° NNW 22:59:09 10° NNE visible
19 Apr 6.7 00:53:04 10° NNW 00:58:28 19° NNE 01:03:13 10° ENE visible
19 Apr 4.7 02:53:26 10° NNW 03:00:47 56° NE 03:06:57 10° SE visible
19 Apr 4.9 04:54:37 10° NW 05:00:11 26° WSW 05:04:27 13° SSW visible
19 Apr 7.0 22:04:50 10° WNW 22:11:19 19° NNW 22:16:57 10° NNE visible
20 Apr 6.8 00:10:44 10° NNW 00:15:36 16° NNE 00:19:56 10° NE visible
20 Apr 5.4 02:11:31 10° NNW 02:18:34 39° NE 02:24:22 11° ESE visible
20 Apr 4.4 04:12:07 10° NW 04:18:41 43° WSW 04:20:48 32° SSW visible
20 Apr 7.0 21:20:55 10° WNW 21:28:30 23° NNW 21:34:57 10° NNE visible
20 Apr 6.9 23:28:02 10° NNW 23:32:38 15° N 23:36:46 10° NE visible
21 Apr 5.9 01:29:36 10° NNW 01:36:10 29° NE 01:41:46 10° E visible
21 Apr 4.0 03:29:54 10° NW 03:37:01 68° WSW 03:38:32 51° S visible
21 Apr 6.9 20:37:10 10° W 20:45:50 29° NW 20:53:04 10° NNE visible
21 Apr 6.9 22:44:50 10° NW 22:49:38 15° N 22:53:55 10° NNE visible
22 Apr 6.3 00:47:39 10° NNW 00:53:35 23° NNE 00:58:44 10° ENE visible
22 Apr 4.1 02:47:51 10° NNW 02:55:11 81° NE 02:56:43 55° SE visible
22 Apr 5.6 04:50:09 10° WNW 04:53:14 16° W 04:53:14 16° W visible
22 Apr 6.9 22:01:11 10° NW 22:06:38 17° NNW 22:11:27 10° NNE visible
23 Apr 6.6 00:05:33 10° NNW 00:10:51 18° NNE 00:15:30 10° ENE visible
23 Apr 4.7 02:05:54 10° NNW 02:13:09 55° NE 02:15:08 41° E visible
23 Apr 5.1 04:07:02 10° NW 04:11:40 26° W 04:11:40 26° W visible
23 Apr 6.9 21:17:18 10° WNW 21:23:43 19° NNW 21:29:17 10° NNE visible
23 Apr 6.7 23:23:14 10° NNW 23:27:58 16° N 23:32:12 10° NE visible
24 Apr 5.3 01:23:59 10° NNW 01:30:56 39° NE 01:33:43 27° E visible
24 Apr 4.6 03:24:32 10° NW 03:30:16 41° W 03:30:16 41° W visible
24 Apr 6.9 20:33:23 10° WNW 20:40:54 23° NNW 20:47:18 10° NNE visible
24 Apr 6.8 22:40:32 10° NNW 22:45:00 15° N 22:49:03 10° NE visible
25 Apr 5.9 00:42:05 10° NNW 00:48:32 29° NE 00:52:24 17° E visible
25 Apr 4.1 02:42:20 10° NW 02:48:58 66° W 02:48:58 66° W visible
25 Apr 6.8 21:57:19 10° NW 22:02:00 15° N 22:06:13 10° NNE visible
